Вернуться в каталог

STARLINK-37271

АктивенСвязьVLEO
NORAD 68722·PAYLOAD·🇺🇸 United States

Запущен Apr 14, 2026 с Cape Canaveral Space Force Station

Loading…

Ближайшие Пролёты (ближайшие 24 часа)

TLE

СвежийSource: CelesTrak SupGP

Эпоха: Sep 15, 2026, 04:00 UTC

1 68722C 26081Z   26258.16715278 -.00060851  00000+0 -17980-2 0  2588
2 68722  53.1582 230.4529 0001460  86.9582 227.4934 15.34417802    12

Отслеживайте STARLINK-37271 в реальном времени с AllMySat

Download on the App Store